TimePDT,TemperatureF,Dew PointF,Humidity,Sea Level PressureIn,VisibilityMPH,Wind Direction,Wind SpeedMPH,Gust SpeedMPH,PrecipitationIn,Events,Conditions,WindDirDegrees,DateUTC
12:56 AM,50.0,23.0,35,29.99,10.0,Calm,Calm,-,N/A,,Smoke,0,2012-10-09 07:56:00
1:56 AM,46.9,23.0,39,30.01,10.0,Calm,Calm,-,N/A,,Smoke,0,2012-10-09 08:56:00
2:56 AM,46.9,26.1,44,30.01,10.0,Calm,Calm,-,N/A,,Smoke,0,2012-10-09 09:56:00
3:56 AM,44.1,23.0,43,30.03,10.0,Calm,Calm,-,N/A,,Smoke,0,2012-10-09 10:56:00
4:56 AM,45.0,27.0,49,30.04,10.0,Calm,Calm,-,N/A,,Smoke,0,2012-10-09 11:56:00
5:56 AM,43.0,26.1,51,30.06,10.0,Calm,Calm,-,N/A,,Smoke,0,2012-10-09 12:56:00
6:56 AM,41.0,26.1,55,30.08,10.0,Calm,Calm,-,N/A,,Clear,0,2012-10-09 13:56:00
7:56 AM,44.1,30.0,58,30.09,8.0,Calm,Calm,-,N/A,,Clear,0,2012-10-09 14:56:00
8:56 AM,48.0,30.0,50,30.11,8.0,ENE,3.5,-,N/A,,Clear,70,2012-10-09 15:56:00
9:56 AM,51.1,30.0,44,30.12,8.0,NNE,3.5,-,N/A,,Clear,20,2012-10-09 16:56:00
10:56 AM,55.9,30.9,39,30.10,8.0,Calm,Calm,-,N/A,,Clear,0,2012-10-09 17:56:00
11:56 AM,59.0,30.9,35,30.09,7.0,NW,3.5,-,N/A,,Clear,310,2012-10-09 18:56:00
12:56 PM,63.0,28.9,28,30.07,8.0,Variable,3.5,-,N/A,,Clear,0,2012-10-09 19:56:00
1:56 PM,66.9,28.0,23,30.04,9.0,Calm,Calm,-,N/A,,Clear,0,2012-10-09 20:56:00
2:56 PM,69.1,28.0,22,30.03,9.0,Calm,Calm,-,N/A,,Clear,0,2012-10-09 21:56:00
3:56 PM,72.0,27.0,19,30.01,9.0,Calm,Calm,-,N/A,,Clear,0,2012-10-09 22:56:00
4:56 PM,71.1,28.0,20,30.00,9.0,Calm,Calm,-,N/A,,Clear,0,2012-10-09 23:56:00
5:56 PM,68.0,28.9,23,30.00,9.0,Calm,Calm,-,N/A,,Clear,0,2012-10-10 00:56:00
6:56 PM,62.1,28.9,29,30.01,9.0,Calm,Calm,-,N/A,,Clear,0,2012-10-10 01:56:00
7:56 PM,59.0,28.0,31,30.01,10.0,SSE,4.6,-,N/A,,Clear,160,2012-10-10 02:56:00
8:56 PM,57.0,27.0,32,30.02,10.0,South,4.6,-,N/A,,Clear,190,2012-10-10 03:56:00
9:56 PM,57.0,27.0,32,30.02,10.0,SW,4.6,-,N/A,,Clear,220,2012-10-10 04:56:00
10:56 PM,53.1,28.0,38,30.01,10.0,SSE,3.5,-,N/A,,Clear,160,2012-10-10 05:56:00
11:56 PM,52.0,28.0,40,30.01,10.0,Calm,Calm,-,N/A,,Clear,0,2012-10-10 06:56:00